TimeCDT,TemperatureF,Dew PointF,Humidity,Sea Level PressureIn,VisibilityMPH,Wind Direction,Wind SpeedMPH,Gust SpeedMPH,PrecipitationIn,Events,Conditions,WindDirDegrees,DateUTC
12:54 AM,77.0,72.0,84,29.99,10.0,South,8.1,-,N/A,,Mostly Cloudy,190,2013-07-22 05:54:00
1:54 AM,75.9,72.0,87,29.99,10.0,SSW,8.1,-,N/A,,Clear,200,2013-07-22 06:54:00
2:54 AM,75.0,71.1,87,29.99,10.0,SSW,6.9,-,N/A,,Clear,200,2013-07-22 07:54:00
3:54 AM,75.0,71.1,87,29.99,10.0,SSW,6.9,-,N/A,,Clear,200,2013-07-22 08:54:00
4:54 AM,73.9,71.1,91,30.00,10.0,SSW,6.9,-,N/A,,Clear,210,2013-07-22 09:54:00
5:54 AM,73.9,71.1,91,30.00,10.0,SSW,8.1,-,N/A,,Scattered Clouds,200,2013-07-22 10:54:00
6:03 AM,73.4,71.6,94,30.01,10.0,SSW,6.9,-,N/A,,Mostly Cloudy,210,2013-07-22 11:03:00
6:26 AM,75.2,71.6,89,30.01,10.0,SW,6.9,-,N/A,,Overcast,220,2013-07-22 11:26:00
6:54 AM,75.0,72.0,90,30.00,10.0,SW,10.4,-,N/A,,Overcast,220,2013-07-22 11:54:00
7:54 AM,77.0,73.0,88,30.01,10.0,SW,8.1,-,N/A,,Overcast,220,2013-07-22 12:54:00
8:27 AM,78.8,73.4,83,30.04,10.0,SW,10.4,-,N/A,,Overcast,220,2013-07-22 13:27:00
8:54 AM,78.1,73.9,87,30.03,10.0,SW,8.1,-,N/A,,Overcast,230,2013-07-22 13:54:00
9:42 AM,82.4,75.2,79,30.05,10.0,SW,11.5,-,N/A,,Overcast,230,2013-07-22 14:42:00
9:54 AM,82.9,75.0,77,30.03,10.0,WSW,6.9,-,N/A,,Overcast,240,2013-07-22 14:54:00
10:45 AM,84.2,73.4,70,30.04,10.0,WSW,10.4,19.6,N/A,,Mostly Cloudy,240,2013-07-22 15:45:00
10:54 AM,84.9,73.9,69,30.03,10.0,West,8.1,18.4,N/A,,Mostly Cloudy,260,2013-07-22 15:54:00
11:54 AM,87.1,73.9,65,30.01,10.0,WSW,10.4,17.3,N/A,,Mostly Cloudy,240,2013-07-22 16:54:00
12:31 PM,89.6,73.4,59,30.01,10.0,WSW,11.5,19.6,N/A,Thunderstorm,Thunderstorm,250,2013-07-22 17:31:00
12:54 PM,84.9,73.9,69,30.01,10.0,SSW,13.8,18.4,N/A,Thunderstorm,Thunderstorm,210,2013-07-22 17:54:00
1:54 PM,91.0,73.0,55,29.99,10.0,West,11.5,18.4,0.01,Thunderstorm,Thunderstorm,260,2013-07-22 18:54:00
2:12 PM,89.6,71.6,55,29.99,10.0,West,10.4,19.6,N/A,,Mostly Cloudy,280,2013-07-22 19:12:00
2:54 PM,90.0,71.1,54,29.97,10.0,WNW,11.5,18.4,N/A,,Mostly Cloudy,290,2013-07-22 19:54:00
3:54 PM,90.0,72.0,55,29.94,10.0,West,9.2,-,N/A,,Scattered Clouds,270,2013-07-22 20:54:00
4:54 PM,89.1,72.0,57,29.96,10.0,WSW,6.9,-,N/A,,Scattered Clouds,240,2013-07-22 21:54:00
5:54 PM,90.0,72.0,55,29.96,10.0,WSW,5.8,-,N/A,,Scattered Clouds,240,2013-07-22 22:54:00
6:54 PM,82.9,71.1,67,29.96,10.0,SSW,9.2,-,N/A,,Partly Cloudy,210,2013-07-22 23:54:00
7:54 PM,80.1,71.1,74,29.96,10.0,SSW,4.6,-,N/A,,Partly Cloudy,200,2013-07-23 00:54:00
8:54 PM,78.1,71.1,79,29.98,10.0,South,6.9,-,N/A,,Partly Cloudy,180,2013-07-23 01:54:00
9:54 PM,77.0,71.1,82,29.98,10.0,South,5.8,-,N/A,,Partly Cloudy,180,2013-07-23 02:54:00
10:54 PM,75.9,72.0,87,29.98,10.0,South,8.1,-,N/A,,Clear,190,2013-07-23 03:54:00
11:54 PM,77.0,73.0,88,29.98,10.0,South,9.2,-,N/A,,Clear,190,2013-07-23 04:54:00